Simultaneous Nadir Overpasses (SNOs) Predictions

Prediction of SNOs between NOAA-19 and TERRA Satellite Orbit:

Table of predicted SNOs for the next 14.0 days since TLE Epoch: 8/17/2015
Index Date (NOAA-19) Time (NOAA-19) Lat,Lon (NOAA-19) SZA (NOAA-19 ) Date (TERRA) Time (TERRA) Lat,Lon (TERRA) SZA (TERRA ) Distance(km) Time Diff (sec)
1 08/17/2015 22:30:51 -72.34, 26.64 121.01 08/17/2015 22:30:57 -72.34, 26.70 121.01 2.03 6
2 08/17/2015 23:21:40 71.94,-165.29 58.62 08/17/2015 23:20:29 71.98,-166.30 58.63 35.22 71
3 08/20/2015 03:14:10 -72.39, -44.24 120.25 08/20/2015 03:15:12 -72.40, -44.27 120.24 1.31 62
4 08/20/2015 04:05:05 72.29, 123.21 59.68 08/20/2015 04:04:39 72.30, 123.20 59.68 1.00 26
5 08/22/2015 08:48:24 72.35, 52.31 60.46 08/22/2015 08:48:54 72.35, 52.22 60.46 3.08 30
6 08/22/2015 09:39:28 -72.26,-140.29 119.61 08/22/2015 09:38:23 -72.28,-140.26 119.60 2.43 65
7 08/24/2015 13:31:53 72.91, -19.67 61.75 08/24/2015 13:33:02 72.76, -18.08 61.63 55.05 69
8 08/24/2015 14:22:47 -72.32, 148.80 118.81 08/24/2015 14:22:38 -72.32, 148.74 118.81 2.09 9
9 08/26/2015 19:06:06 -72.39, 77.88 117.98 08/26/2015 19:06:52 -72.41, 77.83 117.96 2.40 46
10 08/26/2015 19:57:01 72.30,-114.67 61.95 08/26/2015 19:56:19 72.31,-114.71 61.95 1.63 42
11 08/29/2015 00:40:20 72.37, 174.41 62.79 08/29/2015 00:40:33 72.38, 174.37 62.80 2.26 13
